KUIPER-00458

Basic Information
目录编号:
68950
目录名称:
KUIPER-00458
国际标识:
2026-098AH
轨道中心:
EARTH
卫星名称:
KUIPER-00458
卫星全名:
KUIPER-00458
卫星状态:
在轨 (已飞行6 天)
发射日期:
2026-04-30 UTC
国别 :
美国 (US)
星等 :
--
Orbit Information
数据来源 国际轨道数据
星历时间: 2026-05-06T14:00:02+0800
9小时前
查看轨道信息
半长轴: 6836.787km
偏心率: 0.0002122
轨道倾角: 51.877°
近地点辐角 14.481°
升交点赤经 269.727°
平近点角 89.085°
近地点: 457.199km
远地点: 460.101km
周期: 93.764分钟
每日圈数: 15.35765
Detailed Information
使用方式:
暂无
2D Orbit Map
3D Orbit Map
Orbit Altitude Analysis Chart
Orbit Inclination Analysis Chart
Orbit Comprehensive Analysis Chart
View Comprehensive Chart